This is the latest recevied weather packets stored in our database for station/object KB1ZFK. If no packets are shown the sender has not sent any weather packets the latest 10 day(s).
| Time | Temp. | Humidity | Pressure | Rain* | Wind** | Luminosity | Snow |
|---|---|---|---|---|---|---|---|
| 1777816099 | 5° C | 93% | 1006.8 hPa | 0 mm | - | 114 W/m² | - |
| 1777815796 | 4.44° C | 93% | 1006.8 hPa | 0 mm | - | 99 W/m² | - |
| 1777815493 | 4.44° C | 94% | 1006.9 hPa | 0 mm | - | 87 W/m² | - |
| 1777815190 | 4.44° C | 93% | 1006.7 hPa | 0 mm | - | 71 W/m² | - |
| 1777814886 | 4.44° C | 94% | 1007 hPa | 0 mm | - | 59 W/m² | - |
| 1777814583 | 4.44° C | 94% | 1007 hPa | 0 mm | - | 65 W/m² | - |
| 1777814280 | 4.44° C | 94% | 1006.9 hPa | 0 mm | - | 42 W/m² | - |
| 1777813976 | 4.44° C | 94% | 1007 hPa | 0 mm | - | 49 W/m² | - |
| 1777813674 | 3.89° C | 94% | 1006.9 hPa | 0 mm | - | 58 W/m² | - |
| 1777813371 | 3.89° C | 94% | 1007 hPa | 0 mm | - | 47 W/m² | - |
| 1777813069 | 3.89° C | 94% | 1007.1 hPa | 0 mm | - | 35 W/m² | - |
| 1777812767 | 4.44° C | 94% | 1007 hPa | 0 mm | - | 35 W/m² | - |
| 1777812463 | 4.44° C | 94% | 1007 hPa | 0 mm | - | 33 W/m² | - |
| 1777812161 | 4.44° C | 94% | 1006.9 hPa | 0 mm | - | 46 W/m² | - |
| 1777811859 | 4.44° C | 93% | 1006.9 hPa | 0 mm | - | 55 W/m² | - |
| 1777811557 | 5° C | 93% | 1007 hPa | 0 mm | - | 60 W/m² | - |
| 1777811252 | 5° C | 93% | 1006.9 hPa | 0 mm | - | 88 W/m² | - |
| 1777810950 | 5° C | 93% | 1006.9 hPa | 0 mm | - | 118 W/m² | - |
| 1777810646 | 5° C | 93% | 1007 hPa | 0 mm | - | 123 W/m² | - |
| 1777810343 | 5° C | 93% | 1007 hPa | 0 mm | - | 114 W/m² | - |
| 1777810039 | 4.44° C | 93% | 1006.9 hPa | 0 mm | - | 104 W/m² | - |
| 1777809737 | 4.44° C | 94% | 1007.1 hPa | 0 mm | - | 96 W/m² | - |
| 1777809434 | 4.44° C | 94% | 1007 hPa | 0 mm | - | 84 W/m² | - |
| 1777809132 | 4.44° C | 94% | 1007.1 hPa | 0 mm | - | 51 W/m² | - |
| 1777808830 | 3.89° C | 94% | 1007.1 hPa | 0 mm | - | 56 W/m² | - |
* Rain latest hour (hover to see other rain measurements)
** Current wind speed in m/s (hover to see current wind gust speed)